Temp
33 30 24 27 30 30 26 23 20 23 29 25 23 19 22 25 26 24 25 24 24 24 28 33 36 39 41 42 41 42 43 45 45 43 44 44 45 47 49 51 54 55 56 60
30 27 30 33 32 30 28 23 20 26 29 26 20 19 19 24 25 23 23 23 22 23 24 29 33 36 37 40 41 46 47 46 46 46 45 45 46 47 49 52 55 57 58 62
26 31 34 32 30 27 27 22 22 21 27 25 22 14 16 25 28 27 25 22 22 22 22 25 29 33 35 37 38 42 45 45 45 45 48 48 47 48 49 51 55 56 58 63
28 33 32 29 29 26 12 29 26 23 16 11 17 5 17 21 23 23 22 20 20 21 24 25 27 30 32 35 38 40 42 42 44 45 46 47 47 45 48 53 51 50 50 61
29 28 29 20 29 29 21 29 24 23 17 11 18 8 12 19 18 18 19 20 19 21 22 23 25 28 31 34 35 38 39 40 41 42 43 45 47 52 51 49 46 46 45 47
29 31 29 29 31 30 30 21 25 20 17 7 14 12 12 6 9 14 16 18 19 20 22 25 26 29 30 33 34 35 36 36 38 39 40 41 42 45 46 44 43 41 41 42
26 29 30 30 24 29 20 13 2 5 2 5 19 14 11 9 13 9 10 13 18 21 21 22 23 25 28 29 31 33 33 33 35 36 36 37 38 38 39 39 38 37 37 37
10 17 23 29 20 15 21 11 4 -1 4 7 21 9 13 11 11 6 11 12 19 19 21 21 23 25 26 28 29 30 31 31 32 33 33 34 35 35 35 35 35 34 33 33
5 14 29 28 28 25 20 15 21 5 9 5 11 18 15 18 17 10 7 16 15 17 19 19 22 24 24 26 27 28 28 29 30 30 31 31 31 31 31 32 33 32 33 32
16 11 27 28 26 27 24 25 10 10 -1 -1 11 11 12 12 8 10 7 12 15 17 18 19 21 22 23 25 26 27 27 27 28 28 29 28 28 29 29 29 28 29 30 30
20 16 21 25 10 11 16 16 18 15 12 2 4 9 12 8 9 7 9 14 14 15 16 18 20 21 21 23 25 25 25 25 26 27 27 26 26 26 26 26 26 26 27 27
25 13 10 11 13 22 20 8 13 5 6 10 10 9 15 10 5 12 13 15 16 18 16 17 17 18 19 20 21 23 24 24 25 26 26 25 25 25 24 24 24 25 25 25
23 18 9 17 18 22 11 16 17 12 12 6 5 11 12 13 15 14 12 13 14 17 15 13 14 16 17 19 20 22 23 24 25 25 25 25 25 24 23 23 23 24 24 24
30 17 12 12 14 4 8 11 16 14 0 2 7 11 16 11 7 9 11 13 14 14 14 14 14 15 16 19 21 22 23 24 24 25 25 24 24 24 24 24 24 24 24 23
24 11 11 7 0 2 7 13 10 8 4 7 6 4 14 10 4 1 7 12 12 11 12 12 12 13 16 17 20 21 22 23 24 23 23 23 24 24 24 24 24 25 25 25
22 12 12 12 3 -1 11 8 8 9 1 4 -4 3 4 2 7 5 6 6 8 10 8 9 10 10 14 18 19 20 21 22 23 22 21 22 23 24 24 24 24 24 23 23
16 15 9 10 8 12 11 10 4 2 -1 9 6 11 -5 4 3 1 5 6 7 7 8 11 13 15 16 18 21 19 20 22 22 21 21 22 22 22 21 23 23 22 22 23
16 15 16 12 7 8 17 -2 6 10 8 3 2 3 1 1 -1 -2 -1 2 5 8 11 11 12 16 18 20 20 21 21 21 20 20 20 21 21 20 21 20 20 19 20 21
21 17 11 9 9 16 21 12 11 17 20 10 11 1 -2 -3 3 4 -4 -5 -3 -3 -2 2 7 10 16 17 19 19 19 19 19 18 18 19 20 19 19 18 17 19 19 19
26 19 12 15 4 9 18 12 16 13 17 10 14 10 6 14 5 7 -4 -5 -1 -3 -2 3 5 14 16 16 20 19 17 17 16 17 18 18 18 18 16 17 17 18 19 18
18 18 10 13 10 15 16 18 23 18 25 10 13 14 15 11 11 1 1 -0 -1 2 4 5 5 6 8 13 16 15 15 14 17 18 18 17 17 16 17 17 17 16 16 15
13 11 10 12 12 18 19 21 22 24 5 12 11 14 15 4 -5 0 5 5 6 6 8 11 11 12 13 17 17 15 13 14 14 15 15 14 14 17 16 12 13 12 12 11
16 22 18 20 21 19 23 20 15 12 15 12 19 16 18 10 8 9 10 10 12 12 13 14 13 13 13 13 15 13 11 12 11 10 7 8 11 14 14 10 10 9 7 7
22 24 21 22 22 24 21 18 12 15 22 23 25 23 21 17 14 12 13 12 13 14 14 14 12 10 10 9 14 13 11 10 5 4 6 8 9 9 9 14 13 9 7 6
25 24 23 22 25 20 24 25 25 18 20 24 24 24 24 20 15 15 16 15 15 15 14 11 11 10 9 8 8 5 8 7 7 5 7 7 7 6 8 11 10 12 11 11
25 27 27 28 30 31 33 29 29 24 24 25 24 21 23 23 19 18 17 17 16 14 12 10 9 8 7 6 5 3 2 5 5 7 7 6 7 5 6 6 7 20 22 24
MSLP
1019.79 1020.37 1020.83 1021.08 1021.34 1021.49 1021.58 1021.37 1020.69 1020.04 1019.56 1019.71 1019.62 1020.05 1020.82 1021.09 1021.16 1021.41 1021.51 1021.77 1021.52 1020.90 1019.96 1018.81 1017.38 1016.11 1015.06 1014.03 1013.08 1012.20 1011.77 1011.22 1010.71 1010.09 1010.00 1009.67 1009.38 1009.01 1008.59 1008.34 1008.23 1007.84 1007.78 1007.79
1020.55 1020.67 1020.60 1020.59 1020.81 1021.34 1021.11 1020.70 1020.17 1019.56 1019.54 1020.14 1019.98 1020.32 1020.68 1021.26 1021.47 1021.92 1022.07 1022.22 1021.98 1021.11 1020.05 1018.78 1017.55 1016.48 1015.41 1014.40 1013.56 1012.54 1011.92 1011.49 1011.07 1010.51 1010.16 1009.84 1009.43 1008.77 1008.21 1007.73 1007.51 1007.26 1007.22 1007.14
1020.87 1020.64 1020.42 1020.52 1020.74 1021.05 1020.65 1020.54 1020.22 1020.28 1019.88 1019.99 1020.59 1020.66 1020.84 1021.03 1021.38 1021.66 1022.35 1022.80 1022.57 1021.93 1020.60 1019.26 1018.01 1016.99 1015.99 1014.86 1014.11 1013.22 1012.34 1011.83 1011.46 1010.91 1010.14 1009.54 1008.95 1008.46 1007.84 1007.68 1007.37 1007.43 1007.07 1006.71
1021.07 1020.79 1020.73 1020.67 1021.01 1021.16 1020.71 1020.17 1020.20 1020.48 1020.87 1020.83 1021.00 1021.74 1021.09 1021.22 1021.61 1022.18 1022.74 1022.96 1022.75 1022.05 1021.08 1020.11 1018.89 1017.48 1016.53 1015.57 1014.78 1013.77 1013.04 1012.44 1011.69 1011.08 1010.28 1009.72 1009.21 1008.90 1008.20 1008.02 1008.01 1007.81 1007.36 1006.48
1021.21 1021.21 1020.98 1021.34 1020.99 1021.22 1020.88 1020.34 1020.55 1020.70 1021.26 1021.60 1021.65 1022.65 1021.23 1021.82 1022.31 1022.92 1023.23 1023.26 1023.06 1022.45 1021.62 1020.52 1019.55 1018.50 1017.47 1016.30 1015.37 1014.42 1013.64 1013.00 1012.28 1011.45 1010.68 1009.83 1009.26 1008.57 1008.09 1008.32 1008.46 1008.16 1008.11 1008.12
1021.76 1021.59 1021.56 1021.63 1021.15 1021.33 1021.39 1020.83 1020.86 1021.41 1021.90 1022.41 1021.98 1022.96 1022.16 1023.62 1024.58 1024.12 1024.20 1023.91 1023.46 1022.72 1021.89 1020.98 1020.13 1019.02 1017.91 1016.88 1015.91 1014.96 1014.30 1013.69 1012.97 1012.19 1011.40 1010.55 1010.05 1009.35 1008.96 1009.05 1009.31 1009.17 1009.53 1009.87
1022.63 1022.08 1021.88 1022.29 1022.08 1021.70 1022.33 1022.11 1022.75 1022.94 1023.32 1022.66 1022.21 1023.19 1022.72 1024.14 1025.03 1025.63 1025.38 1024.68 1023.96 1023.16 1022.34 1021.42 1020.41 1019.45 1018.44 1017.37 1016.49 1015.72 1015.10 1014.37 1013.71 1012.90 1012.07 1011.45 1011.17 1010.78 1010.43 1010.40 1010.61 1010.34 1010.76 1011.60
1024.95 1023.08 1022.68 1022.92 1023.14 1023.16 1023.63 1024.38 1025.82 1026.04 1025.01 1023.39 1022.02 1022.45 1022.91 1024.08 1025.12 1026.09 1026.08 1025.38 1024.44 1023.61 1022.91 1022.15 1021.27 1020.32 1019.41 1018.42 1017.55 1016.81 1016.01 1015.23 1014.49 1013.64 1013.04 1012.57 1012.10 1011.95 1011.83 1011.87 1012.01 1012.05 1012.29 1012.04
1026.26 1024.38 1023.08 1023.40 1023.44 1023.60 1023.85 1024.86 1025.83 1026.25 1025.42 1024.65 1022.28 1022.25 1023.33 1024.42 1025.16 1025.82 1026.06 1025.32 1024.75 1024.10 1023.41 1022.67 1021.79 1020.99 1020.21 1019.26 1018.44 1017.69 1016.89 1016.19 1015.41 1014.67 1014.18 1013.78 1013.32 1013.28 1013.12 1013.47 1013.67 1013.22 1013.81 1013.84
1026.29 1025.57 1023.62 1023.84 1024.02 1023.96 1024.13 1025.26 1026.17 1026.63 1026.29 1025.19 1022.92 1022.66 1023.43 1024.57 1025.51 1025.96 1025.92 1025.54 1025.01 1024.38 1023.77 1023.07 1022.35 1021.62 1020.85 1020.11 1019.33 1018.58 1017.84 1017.10 1016.51 1015.85 1015.32 1015.07 1014.92 1014.60 1014.62 1014.87 1014.74 1014.45 1014.95 1015.09
1025.87 1026.71 1024.61 1024.64 1024.99 1025.17 1025.28 1025.83 1026.51 1027.03 1026.96 1026.85 1025.44 1023.21 1023.73 1025.51 1026.29 1026.36 1026.11 1025.78 1025.44 1024.88 1024.30 1023.76 1023.16 1022.50 1021.77 1020.97 1020.10 1019.41 1018.67 1018.01 1017.53 1017.08 1016.73 1016.42 1016.39 1016.32 1016.39 1015.96 1015.57 1015.92 1016.21 1016.11
1025.33 1026.64 1026.36 1025.60 1025.78 1025.79 1025.98 1026.80 1027.46 1027.81 1027.69 1027.65 1027.21 1024.62 1024.06 1025.53 1026.19 1026.32 1026.30 1026.00 1025.67 1025.26 1024.91 1024.42 1023.93 1023.28 1022.56 1021.82 1021.02 1020.37 1019.77 1019.16 1018.76 1018.40 1017.96 1017.85 1017.65 1017.60 1017.79 1017.61 1017.88 1018.85 1019.76 1019.49
1024.98 1026.20 1027.07 1025.90 1026.83 1026.39 1026.84 1027.28 1027.70 1028.22 1028.44 1028.42 1028.36 1025.09 1024.58 1025.66 1026.13 1026.54 1026.55 1026.28 1025.91 1025.65 1025.36 1024.99 1024.49 1024.04 1023.46 1022.80 1022.09 1021.40 1020.80 1020.27 1019.84 1019.45 1019.08 1018.91 1018.83 1018.84 1019.14 1018.99 1019.44 1020.23 1020.18 1020.43
1024.54 1026.18 1027.36 1028.13 1027.95 1028.23 1027.91 1027.80 1028.07 1028.59 1029.42 1028.90 1028.38 1026.44 1025.10 1025.97 1027.06 1027.24 1026.75 1026.34 1026.22 1026.07 1025.87 1025.67 1025.25 1024.85 1024.37 1023.69 1022.96 1022.34 1021.81 1021.33 1020.86 1020.52 1020.16 1020.12 1020.01 1020.42 1020.77 1020.62 1021.12 1021.49 1022.29 1021.08
1024.90 1026.37 1027.44 1027.60 1028.24 1028.64 1028.11 1027.94 1028.14 1028.83 1028.99 1029.35 1028.17 1028.32 1026.77 1027.36 1028.07 1028.46 1027.97 1027.39 1026.88 1026.61 1026.48 1026.28 1025.96 1025.54 1025.02 1024.31 1023.61 1023.16 1022.72 1022.35 1022.02 1021.64 1021.34 1021.29 1021.27 1021.64 1021.44 1021.61 1022.29 1022.70 1022.74 1022.61
1025.35 1026.43 1027.50 1027.71 1027.94 1028.44 1028.19 1027.27 1027.75 1028.56 1028.93 1029.09 1028.92 1028.59 1027.83 1027.91 1028.48 1028.78 1028.74 1028.14 1027.53 1027.34 1027.27 1026.98 1026.60 1026.05 1025.49 1024.93 1024.40 1024.06 1023.75 1023.48 1023.16 1022.74 1022.56 1022.50 1022.46 1022.76 1022.91 1023.65 1024.13 1024.26 1024.55 1024.38
1025.63 1026.67 1027.65 1027.76 1027.37 1027.48 1027.15 1025.59 1026.39 1027.31 1027.90 1028.37 1028.81 1028.53 1029.10 1029.37 1029.63 1029.77 1029.74 1029.34 1029.09 1028.18 1027.45 1027.25 1027.01 1026.47 1025.94 1025.47 1025.10 1024.93 1024.87 1024.49 1024.13 1023.95 1023.68 1023.86 1023.60 1023.84 1024.63 1025.26 1025.22 1025.20 1025.23 1025.11
1025.61 1026.38 1027.24 1027.22 1026.66 1026.01 1024.24 1024.32 1024.98 1025.72 1025.95 1027.03 1027.90 1028.24 1029.07 1029.86 1030.09 1030.40 1030.53 1030.75 1030.52 1029.82 1029.17 1028.18 1027.70 1027.18 1026.66 1026.32 1026.12 1025.93 1025.50 1025.22 1025.03 1024.90 1025.07 1025.11 1025.11 1025.65 1026.62 1026.36 1026.48 1026.58 1026.32 1026.18
1025.07 1025.69 1026.63 1027.12 1026.69 1024.04 1023.14 1023.78 1024.03 1024.18 1024.13 1024.56 1026.16 1027.83 1028.76 1030.00 1030.32 1030.28 1030.16 1030.69 1030.75 1030.66 1029.86 1029.33 1028.73 1028.02 1027.59 1027.26 1026.90 1026.74 1026.55 1026.41 1026.40 1026.54 1026.56 1026.57 1026.81 1027.35 1027.23 1026.88 1027.27 1027.79 1027.56 1027.50
1025.01 1025.30 1026.16 1026.29 1025.99 1023.44 1021.67 1021.44 1021.79 1022.48 1023.18 1023.15 1023.90 1026.19 1027.87 1029.47 1030.39 1030.12 1029.76 1030.48 1030.25 1030.10 1030.08 1029.67 1028.86 1028.39 1027.99 1027.68 1027.33 1027.16 1027.29 1027.35 1027.47 1027.83 1027.88 1027.93 1027.74 1027.67 1027.84 1028.03 1028.62 1028.69 1028.28 1028.28
1024.81 1024.95 1025.35 1025.19 1024.65 1021.93 1020.04 1020.75 1021.59 1022.03 1021.69 1021.50 1022.70 1024.09 1026.19 1028.07 1028.32 1028.54 1029.27 1029.63 1029.49 1029.62 1029.35 1028.92 1028.76 1028.68 1028.34 1028.04 1027.75 1027.92 1028.14 1028.34 1028.56 1028.50 1028.32 1028.00 1028.25 1028.68 1028.92 1029.34 1029.26 1029.08 1029.29 1029.80
1022.55 1023.26 1023.65 1023.67 1022.93 1020.50 1019.18 1020.72 1020.63 1019.03 1019.78 1020.12 1021.73 1022.71 1024.53 1025.85 1027.45 1028.04 1028.49 1029.03 1029.18 1029.19 1029.05 1028.84 1028.79 1028.68 1028.51 1028.19 1027.98 1028.39 1028.74 1029.10 1029.18 1029.23 1029.26 1029.31 1029.60 1029.83 1030.02 1029.98 1030.06 1030.16 1030.57 1031.21
1020.92 1019.74 1019.96 1019.83 1018.08 1016.93 1017.50 1017.28 1017.37 1018.04 1018.84 1019.72 1020.32 1021.56 1022.70 1024.91 1026.49 1027.23 1027.75 1028.19 1028.40 1028.47 1028.49 1028.54 1028.59 1028.58 1028.46 1028.38 1028.31 1028.61 1029.27 1029.37 1029.51 1029.69 1030.07 1030.31 1030.53 1030.63 1030.67 1030.73 1031.05 1031.44 1031.60 1031.77
1018.92 1018.39 1018.42 1018.10 1016.04 1015.99 1016.25 1016.78 1017.74 1017.75 1017.67 1018.47 1018.83 1020.10 1021.61 1022.99 1024.85 1026.08 1026.76 1027.27 1027.55 1027.75 1027.82 1027.94 1028.25 1028.52 1028.73 1028.75 1028.68 1028.75 1029.25 1029.66 1030.20 1030.83 1030.88 1030.87 1030.97 1031.09 1031.15 1031.33 1031.53 1031.65 1031.72 1031.50
1017.56 1017.63 1016.96 1016.21 1014.74 1015.18 1015.01 1015.13 1015.72 1017.11 1017.27 1017.70 1018.72 1019.27 1020.22 1021.78 1023.34 1024.26 1025.33 1026.08 1026.61 1026.93 1027.19 1027.44 1027.73 1028.10 1028.50 1028.84 1029.21 1029.33 1029.66 1029.99 1030.65 1031.05 1031.19 1031.35 1031.51 1031.63 1031.71 1031.57 1031.28 1031.07 1031.13 1030.91
1015.72 1014.50 1014.84 1013.30 1012.34 1012.68 1012.77 1013.13 1014.57 1015.93 1016.60 1016.67 1017.74 1019.18 1020.09 1020.71 1021.95 1023.26 1024.15 1024.63 1025.26 1025.89 1026.47 1027.07 1027.43 1027.84 1028.24 1028.70 1029.13 1029.32 1029.69 1030.17 1030.81 1031.33 1031.58 1031.71 1031.82 1031.88 1031.74 1031.62 1031.29 1030.38 1030.20 1029.92
Wind_Speed
4 5 2 4 3 7 7 9 14 10 6 5 3 3 4 5 7 12 13 14 15 17 18 17 16 15 15 13 14 9 7 8 5 2 2 2 3 3 3 3 6 7 6 8
5 2 2 5 6 7 10 13 8 7 4 4 2 5 3 3 4 9 12 14 16 17 18 19 19 17 16 15 14 13 11 10 8 6 2 2 3 4 4 4 5 6 8 8
3 1 4 5 7 8 8 5 4 8 11 3 3 6 2 2 3 10 10 11 12 15 18 19 20 17 16 15 16 14 13 11 9 10 6 4 3 3 2 3 3 5 8 8
4 3 4 9 5 4 5 4 10 16 3 3 3 6 5 1 4 12 14 14 15 17 17 17 18 19 17 16 14 15 14 13 11 11 7 6 4 4 2 4 3 5 11 4
2 4 5 4 5 2 9 13 14 7 3 3 3 2 6 3 5 15 15 15 16 15 16 17 17 18 16 15 14 13 13 13 12 11 9 6 6 4 2 3 4 7 10 12
4 2 4 5 7 1 11 5 1 4 2 2 4 4 5 2 5 12 14 15 16 16 17 17 16 17 15 14 14 13 14 12 13 10 11 10 9 8 4 5 5 6 8 8
6 2 1 2 6 1 9 6 6 7 6 5 1 2 7 4 4 4 12 15 13 14 15 16 18 17 16 17 16 14 14 13 12 12 13 13 11 10 9 8 6 8 8 6
3 8 3 4 3 4 5 5 4 5 4 7 5 6 5 6 5 4 7 10 12 14 14 15 16 15 15 16 15 14 14 13 13 13 13 12 13 8 8 10 8 7 6 9
3 8 1 1 1 2 3 5 2 1 3 3 3 1 4 5 8 7 9 12 12 13 13 15 15 14 14 14 14 14 13 13 13 13 11 13 13 13 11 13 11 9 10 7
4 5 3 2 1 3 4 1 3 1 5 6 6 5 3 6 13 13 12 11 12 12 13 13 13 14 13 13 12 13 12 11 12 12 12 12 13 14 13 13 14 16 14 12
5 4 5 3 1 4 3 3 2 1 1 2 6 8 4 4 7 9 8 10 9 11 11 11 11 11 11 12 11 11 12 12 12 12 12 14 13 15 13 15 16 16 15 14
5 5 6 7 5 3 3 5 4 4 4 2 3 9 3 5 7 4 8 10 9 9 9 9 9 9 10 11 11 10 11 12 11 11 13 15 15 16 16 17 18 15 12 11
6 1 5 9 2 0 2 3 3 3 3 4 1 8 0 2 4 6 5 6 7 9 9 7 7 9 9 9 10 10 10 11 11 11 13 16 17 18 17 18 18 16 16 14
6 3 7 7 8 2 2 3 4 4 3 3 7 13 10 8 6 8 8 6 4 7 8 8 8 8 9 9 9 9 10 10 11 12 15 17 17 17 15 18 17 17 13 18
4 3 3 6 5 1 5 5 4 6 6 5 5 5 16 9 7 5 5 8 6 6 6 7 6 7 8 9 10 10 10 9 10 12 15 16 17 16 17 18 14 13 15 16
1 2 1 5 2 4 6 5 6 4 3 7 3 9 4 5 5 7 9 10 10 7 3 3 4 5 6 8 9 10 11 9 8 12 13 14 15 15 15 13 13 13 12 12
4 4 3 7 2 5 7 8 6 2 3 6 3 7 4 5 6 3 5 6 7 9 9 7 6 5 6 7 9 9 8 8 11 11 13 13 14 15 13 10 11 11 12 12
6 5 3 5 5 5 8 2 3 5 7 7 3 5 5 4 4 4 4 3 5 2 3 6 7 8 8 7 7 7 9 10 11 12 12 11 12 12 8 10 10 10 9 11
2 4 2 1 3 8 3 6 7 7 7 11 9 3 4 3 4 6 5 4 4 4 4 4 4 2 4 6 6 8 9 10 10 10 9 9 9 7 7 11 10 7 9 10
5 5 4 2 2 5 9 4 5 3 5 10 9 9 8 5 2 6 4 4 4 5 4 3 4 3 3 4 4 8 8 8 9 7 7 6 7 9 9 8 6 6 8 10
3 2 4 4 4 11 6 5 5 6 9 9 8 10 11 7 6 4 6 2 3 3 4 1 3 3 1 1 5 8 6 8 5 4 6 8 8 7 6 5 5 6 8 8
9 9 5 3 1 8 8 6 9 8 3 7 6 9 10 5 3 5 6 6 6 6 4 3 4 4 2 3 5 6 7 3 4 4 5 6 5 4 4 5 5 5 5 4
3 8 7 10 10 4 13 4 4 4 7 8 9 8 14 10 8 10 9 8 8 8 6 5 5 5 3 2 4 7 4 4 5 5 5 4 3 3 3 4 4 3 2 1
5 4 3 4 4 10 9 4 3 6 6 6 7 14 17 13 12 12 10 9 8 7 7 5 7 6 5 3 3 3 4 5 5 4 3 3 4 3 3 2 1 2 2 1
4 6 5 7 8 4 7 12 7 5 4 10 8 10 18 15 15 13 11 11 9 8 6 5 6 5 5 4 4 3 5 6 4 3 2 1 1 2 2 2 3 3 3 3
8 10 7 9 7 4 4 5 12 12 12 15 16 12 10 15 18 13 12 11 11 11 7 7 7 6 6 6 5 4 4 6 5 4 3 3 3 3 3 2 1 3 5 4
Wind_Direction
3 40 320 284 223 244 264 263 271 272 274 302 246 253 318 333 28 7 359 346 336 332 326 330 336 340 342 342 342 326 327 342 334 350 350 328 280 276 271 259 254 240 233 238
17 262 220 282 276 269 270 278 278 274 243 300 280 256 226 297 53 23 355 343 335 330 334 337 341 345 347 345 346 350 356 354 351 351 312 264 262 269 257 258 267 236 235 232
175 335 335 311 293 319 292 243 262 290 315 250 293 295 184 201 181 3 2 343 338 334 334 337 340 344 342 351 344 343 345 348 347 342 325 313 281 275 293 317 314 353 303 232
243 343 315 303 279 30 308 241 299 307 295 254 106 286 218 256 282 4 356 351 344 339 338 338 337 343 343 346 342 343 343 346 346 346 338 335 299 291 303 333 6 0 355 261
282 5 329 335 286 142 256 307 297 277 189 23 184 47 271 5 319 341 349 347 341 338 339 338 339 341 337 342 348 339 349 350 350 352 352 352 328 266 76 35 20 31 14 354
262 280 166 248 309 198 299 330 309 43 83 341 238 140 276 325 294 322 334 339 342 342 342 341 341 342 342 348 352 349 356 356 356 359 9 16 14 6 42 36 29 33 29 342
335 229 326 7 316 144 23 360 355 359 8 239 216 212 259 194 255 279 317 325 336 344 345 345 346 345 346 352 354 353 357 2 5 13 25 27 28 30 42 42 35 42 43 7
50 324 50 331 151 207 27 92 114 279 325 291 273 236 287 199 216 251 299 298 341 349 347 345 345 346 348 348 352 354 1 7 13 23 32 31 34 37 46 49 55 51 62 63
79 279 107 307 311 143 311 45 168 234 226 293 252 265 110 216 325 339 334 346 345 348 349 346 346 353 348 346 356 359 6 15 24 30 37 41 41 41 43 50 59 58 55 57
190 318 190 201 320 26 87 50 62 27 350 311 306 289 250 318 327 329 339 345 347 347 351 350 351 353 352 350 357 6 12 20 27 36 40 48 49 44 46 55 58 56 55 56
131 116 285 41 356 173 4 47 38 207 181 245 305 281 193 218 295 305 317 341 348 346 349 349 352 353 350 354 3 11 19 26 34 42 48 55 55 56 52 51 53 50 55 57
189 148 275 238 257 221 120 151 148 113 298 268 288 276 167 196 250 297 336 346 351 355 348 347 352 352 360 1 3 20 27 35 38 46 59 60 60 61 59 56 58 59 65 71
180 202 340 343 358 6 124 184 177 144 57 226 243 279 182 279 329 7 348 349 348 2 355 346 355 1 0 7 10 22 31 43 46 52 61 63 64 62 60 61 59 57 56 58
125 138 173 197 227 154 318 202 173 132 119 243 228 290 306 333 348 337 340 350 12 11 6 4 4 10 10 10 21 28 43 45 54 62 65 67 64 66 65 68 67 62 62 64
122 195 186 247 237 243 243 219 199 176 206 176 254 259 293 321 321 291 297 341 10 25 18 2 5 11 23 26 27 30 34 39 58 72 73 71 72 69 64 62 65 70 65 69
54 257 112 289 351 259 277 235 198 200 203 276 343 286 213 296 315 359 349 351 355 1 18 16 3 25 31 40 39 37 36 36 51 67 71 70 74 71 71 69 69 70 74 73
120 121 59 273 327 324 329 217 193 198 212 154 202 242 352 325 336 308 325 346 348 340 341 358 18 35 43 46 53 44 35 48 58 62 62 67 69 65 56 62 68 68 68 73
135 125 141 283 6 11 243 292 150 189 218 199 302 254 229 230 262 269 237 240 285 298 349 350 358 10 25 33 46 61 51 51 56 58 61 64 67 71 77 75 67 65 64 66
121 130 121 80 262 287 305 220 174 165 279 176 182 218 248 326 341 298 210 204 215 228 258 270 308 324 69 42 63 70 62 61 63 55 56 57 69 89 87 70 57 55 73 67
118 102 113 154 134 205 237 235 194 136 310 181 160 168 158 143 45 256 199 209 255 244 221 254 306 342 53 33 94 97 78 74 66 59 61 72 72 66 60 67 69 64 69 70
171 171 175 184 244 285 223 176 167 79 237 163 180 156 151 179 198 221 147 209 216 234 263 222 117 130 212 70 94 87 93 74 67 66 68 59 54 62 61 72 60 61 68 69
169 154 191 154 200 291 161 93 162 211 334 152 160 158 162 165 136 179 175 180 196 210 211 196 157 139 116 104 116 103 89 85 73 73 83 72 56 70 68 77 70 61 71 88
274 188 179 186 212 219 207 198 220 156 149 195 159 164 151 144 177 177 188 189 196 194 190 185 166 156 154 131 140 132 156 128 101 83 74 66 66 85 86 79 83 81 95 165
244 172 214 49 275 224 208 232 236 197 173 171 168 153 160 161 166 180 173 187 196 200 196 181 173 176 168 169 146 137 137 116 118 131 125 85 80 74 54 97 130 137 160 156
195 134 190 264 268 350 248 221 193 187 184 141 149 168 170 156 174 174 179 184 193 198 199 182 184 180 196 177 189 170 147 131 131 99 89 104 144 177 159 190 180 180 220 165
191 187 173 223 212 176 225 194 177 171 188 168 160 154 175 167 171 171 184 187 187 194 184 189 197 187 196 189 198 189 152 152 149 155 175 191 185 197 196 188 284 254 170 169